"Sample Date","Sample Time","Sensor Name","Sample Value","Units","Flow Rate","Sample Interval","Sample Volume","Laser Status","Number Channels","Micron Size 0","Counts/Channel 0","Micron Size 1","Counts/Channel 1","Micron Size 2","Counts/Channel 2","Micron Size 3","Counts/Channel 3","Micron Size 4","Counts/Channel 4","Micron Size 5","Counts/Channel 5","Micron Size 6","Counts/Channel 6","Micron Size 7","Counts/Channel 7","Micron Size 8","Counts/Channel 8","Micron Size 9","Counts/Channel 9","Micron Size 10","Counts/Channel 10","Micron Size 11","Counts/Channel 11","Micron Size 12","Counts/Channel 12","Micron Size 13","Counts/Channel 13","Micron Size 14","Counts/Channel 14","Micron Size 15","Counts/Channel 15","Micron Size 16","Counts/Channel 16","Micron Size 17","Counts/Channel 17","Micron Size 18","Counts/Channel 18","Micron Size 19","Counts/Channel 19","Micron Size 20","Counts/Channel 20","Micron Size 21","Counts/Channel 21","Micron Size 22","Counts/Channel 22","Micron Size 23","Counts/Channel 23","Micron Size 24","Counts/Channel 24","Micron Size 25","Counts/Channel 25","Micron Size 26","Counts/Channel 26","Micron Size 27","Counts/Channel 27","Micron Size 28","Counts/Channel 28","Micron Size 29","Counts/Channel 29","Micron Size 30","Counts/Channel 30","Micron Size 31","Counts/Channel 31"
"07/01/06","14:00:03","AMMA06",52802.000,"cc",28329.598,6.00,2832.960,1,6,0.100,28222.000,0.200,19728.000,0.300,3457.000,0.500,814.000,1.000,581.000,5.000,0
"07/01/06","14:00:09","AMMA06",53356.000,"cc",28328.746,6.00,2832.875,1,6,0.100,28384.000,0.200,19970.000,0.300,3521.000,0.500,892.000,1.000,589.000,5.000,0
"07/01/06","14:00:15","AMMA06",53095.000,"cc",28293.318,6.00,2829.332,1,6,0.100,28262.000,0.200,19946.000,0.300,3449.000,0.500,832.000,1.000,606.000,5.000,0
"07/01/06","14:00:21","AMMA06",53102.000,"cc",28325.391,6.00,2832.539,1,6,0.100,28441.000,0.200,19737.000,0.300,3521.000,0.500,850.000,1.000,553.000,5.000,0
"07/01/06","14:00:27","AMMA06",53312.000,"cc",28356.332,6.00,2835.633,1,6,0.100,28603.000,0.200,19754.000,0.300,3441.000,0.500,893.000,1.000,620.000,5.000,1.000
"07/01/06","14:00:33","AMMA06",53509.000,"cc",28273.955,6.00,2827.396,1,6,0.100,28791.000,0.200,19806.000,0.300,3461.000,0.500,884.000,1.000,567.000,5.000,0
"07/01/06","14:00:39","AMMA06",53598.000,"cc",28347.549,6.00,2834.755,1,6,0.100,28738.000,0.200,19935.000,0.300,3472.000,0.500,855.000,1.000,597.000,5.000,1.000
"07/01/06","14:00:45","AMMA06",53298.000,"cc",28276.473,6.00,2827.648,1,6,0.100,28792.000,0.200,19618.000,0.300,3429.000,0.500,887.000,1.000,572.000,5.000,0
"07/01/06","14:00:51","AMMA06",53223.000,"cc",28345.272,6.00,2834.527,1,6,0.100,28510.000,0.200,19786.000,0.300,3465.000,0.500,846.000,1.000,616.000,5.000,0
"07/01/06","14:00:57","AMMA06",53266.000,"cc",28300.014,6.00,2830.002,1,6,0.100,28766.000,0.200,19592.000,0.300,3541.000,0.500,810.000,1.000,557.000,5.000,0
"07/01/06","14:01:03","AMMA06",53354.000,"cc",28279.590,6.00,2827.959,1,6,0.100,28787.000,0.200,19718.000,0.300,3311.000,0.500,909.000,1.000,629.000,5.000,0
"07/01/06","14:01:09","AMMA06",53522.000,"cc",28277.318,6.00,2827.732,1,6,0.100,28986.000,0.200,19633.000,0.300,3427.000,0.500,867.000,1.000,609.000,5.000,0
"07/01/06","14:01:15","AMMA06",53261.000,"cc",28297.662,6.00,2829.766,1,6,0.100,28619.000,0.200,19881.000,0.300,3342.000,0.500,810.000,1.000,609.000,5.000,0
"07/01/06","14:01:21","AMMA06",53117.000,"cc",28380.260,6.00,2838.026,1,6,0.100,28429.000,0.200,19790.000,0.300,3384.000,0.500,908.000,1.000,606.000,5.000,0
"07/01/06","14:01:27","AMMA06",53346.000,"cc",28325.231,6.00,2832.523,1,6,0.100,28840.000,0.200,19673.000,0.300,3352.000,0.500,893.000,1.000,587.000,5.000,1.000
"07/01/06","14:01:33","AMMA06",53220.000,"cc",28259.203,6.00,2825.920,1,6,0.100,28627.000,0.200,19704.000,0.300,3363.000,0.500,898.000,1.000,628.000,5.000,0
"07/01/06","14:01:39","AMMA06",53532.000,"cc",28330.514,6.00,2833.052,1,6,0.100,28868.000,0.200,19685.000,0.300,3483.000,0.500,890.000,1.000,606.000,5.000,0
"07/01/06","14:01:45","AMMA06",53497.000,"cc",28360.801,6.00,2836.080,1,6,0.100,28857.000,0.200,19712.000,0.300,3424.000,0.500,862.000,1.000,642.000,5.000,0
"07/01/06","14:01:51","AMMA06",53267.000,"cc",28306.959,6.00,2830.696,1,6,0.100,28806.000,0.200,19641.000,0.300,3282.000,0.500,903.000,1.000,635.000,5.000,0
"07/01/06","14:01:57","AMMA06",53413.000,"cc",28292.240,6.00,2829.224,1,6,0.100,28689.000,0.200,19826.000,0.300,3428.000,0.500,894.000,1.000,576.000,5.000,0
"07/01/06","14:02:03","AMMA06",53571.000,"cc",28341.422,6.00,2834.142,1,6,0.100,29106.000,0.200,19598.000,0.300,3354.000,0.500,883.000,1.000,629.000,5.000,1.000
"07/01/06","14:02:09","AMMA06",53195.000,"cc",28294.068,6.00,2829.407,1,6,0.100,28900.000,0.200,19584.000,0.300,3232.000,0.500,861.000,1.000,618.000,5.000,0
"07/01/06","14:02:15","AMMA06",53465.000,"cc",28296.756,6.00,2829.676,1,6,0.100,28955.000,0.200,19722.000,0.300,3289.000,0.500,899.000,1.000,599.000,5.000,1.000
"07/01/06","14:02:21","AMMA06",53391.000,"cc",28342.625,6.00,2834.263,1,6,0.100,29055.000,0.200,19517.000,0.300,3340.000,0.500,862.000,1.000,616.000,5.000,1.000
"07/01/06","14:02:27","AMMA06",53247.000,"cc",28345.418,6.00,2834.542,1,6,0.100,28979.000,0.200,19530.000,0.300,3298.000,0.500,845.000,1.000,594.000,5.000,1.000
"07/01/06","14:02:33","AMMA06",52680.000,"cc",28304.106,6.00,2830.411,1,6,0.100,28757.000,0.200,19313.000,0.300,3197.000,0.500,845.000,1.000,567.000,5.000,1.000
"07/01/06","14:02:39","AMMA06",53214.000,"cc",28317.289,6.00,2831.729,1,6,0.100,29029.000,0.200,19449.000,0.300,3308.000,0.500,861.000,1.000,565.000,5.000,2.000
"07/01/06","14:02:45","AMMA06",53594.000,"cc",28298.053,6.00,2829.805,1,6,0.100,29369.000,0.200,19513.000,0.300,3264.000,0.500,867.000,1.000,581.000,5.000,0
"07/01/06","14:02:51","AMMA06",53611.000,"cc",28295.924,6.00,2829.593,1,6,0.100,28928.000,0.200,19727.000,0.300,3441.000,0.500,878.000,1.000,636.000,5.000,1.000
"07/01/06","14:02:57","AMMA06",52998.000,"cc",28367.166,6.00,2836.717,1,6,0.100,28652.000,0.200,19480.000,0.300,3403.000,0.500,874.000,1.000,589.000,5.000,0
"07/01/06","14:03:03","AMMA06",53123.000,"cc",28289.981,6.00,2828.998,1,6,0.100,28706.000,0.200,19680.000,0.300,3288.000,0.500,867.000,1.000,582.000,5.000,0
"07/01/06","14:03:09","AMMA06",53088.000,"cc",28310.498,6.00,2831.050,1,6,0.100,28600.000,0.200,19645.000,0.300,3401.000,0.500,839.000,1.000,603.000,5.000,0
"07/01/06","14:03:15","AMMA06",53357.000,"cc",28336.754,6.00,2833.676,1,6,0.100,28922.000,0.200,19680.000,0.300,3268.000,0.500,900.000,1.000,586.000,5.000,1.000
"07/01/06","14:03:21","AMMA06",52763.000,"cc",28359.481,6.00,2835.948,1,6,0.100,28494.000,0.200,19556.000,0.300,3225.000,0.500,880.000,1.000,608.000,5.000,0
"07/01/06","14:03:27","AMMA06",53293.000,"cc",28289.734,6.00,2828.974,1,6,0.100,28642.000,0.200,19765.000,0.300,3406.000,0.500,826.000,1.000,653.000,5.000,1.000
"07/01/06","14:03:33","AMMA06",52874.000,"cc",28329.115,6.00,2832.912,1,6,0.100,28558.000,0.200,19445.000,0.300,3444.000,0.500,812.000,1.000,614.000,5.000,1.000
"07/01/06","14:03:39","AMMA06",53133.000,"cc",28293.053,6.00,2829.305,1,6,0.100,28657.000,0.200,19649.000,0.300,3415.000,0.500,861.000,1.000,551.000,5.000,0
"07/01/06","14:03:45","AMMA06",53088.000,"cc",28332.148,6.00,2833.215,1,6,0.100,28518.000,0.200,19689.000,0.300,3414.000,0.500,868.000,1.000,599.000,5.000,0
"07/01/06","14:03:51","AMMA06",53118.000,"cc",28307.807,6.00,2830.781,1,6,0.100,28839.000,0.200,19459.000,0.300,3321.000,0.500,880.000,1.000,618.000,5.000,1.000
"07/01/06","14:03:57","AMMA06",53172.000,"cc",28296.141,6.00,2829.614,1,6,0.100,28663.000,0.200,19586.000,0.300,3412.000,0.500,883.000,1.000,628.000,5.000,0
"07/01/06","14:04:03","AMMA06",53100.000,"cc",28282.436,6.00,2828.244,1,6,0.100,28628.000,0.200,19680.000,0.300,3353.000,0.500,860.000,1.000,578.000,5.000,1.000
"07/01/06","14:04:09","AMMA06",53606.000,"cc",28305.436,6.00,2830.544,1,6,0.100,28933.000,0.200,19825.000,0.300,3404.000,0.500,877.000,1.000,567.000,5.000,0
"07/01/06","14:04:15","AMMA06",53472.000,"cc",28304.732,6.00,2830.473,1,6,0.100,28840.000,0.200,19832.000,0.300,3393.000,0.500,829.000,1.000,578.000,5.000,0
"07/01/06","14:04:21","AMMA06",53126.000,"cc",28366.459,6.00,2836.646,1,6,0.100,28605.000,0.200,19648.000,0.300,3358.000,0.500,879.000,1.000,636.000,5.000,0
"07/01/06","14:04:27","AMMA06",53523.000,"cc",28277.631,6.00,2827.763,1,6,0.100,29145.000,0.200,19659.000,0.300,3291.000,0.500,835.000,1.000,593.000,5.000,0
"07/01/06","14:04:33","AMMA06",53549.000,"cc",28353.180,6.00,2835.318,1,6,0.100,28899.000,0.200,19826.000,0.300,3296.000,0.500,872.000,1.000,656.000,5.000,0
"07/01/06","14:04:39","AMMA06",52807.000,"cc",28324.551,6.00,2832.455,1,6,0.100,28845.000,0.200,19163.000,0.300,3347.000,0.500,883.000,1.000,569.000,5.000,0
"07/01/06","14:04:45","AMMA06",53126.000,"cc",28328.922,6.00,2832.892,1,6,0.100,29062.000,0.200,19243.000,0.300,3321.000,0.500,876.000,1.000,624.000,5.000,0
"07/01/06","14:04:51","AMMA06",53333.000,"cc",28261.703,6.00,2826.170,1,6,0.100,29047.000,0.200,19523.000,0.300,3277.000,0.500,861.000,1.000,625.000,5.000,0
"07/01/06","14:04:57","AMMA06",53126.000,"cc",28309.111,6.00,2830.911,1,6,0.100,29141.000,0.200,19213.000,0.300,3296.000,0.500,854.000,1.000,621.000,5.000,1.000
"07/01/06","14:05:03","AMMA06",53345.000,"cc",28334.213,6.00,2833.421,1,6,0.100,29055.000,0.200,19617.000,0.300,3199.000,0.500,889.000,1.000,584.000,5.000,1.000
"07/01/06","14:05:09","AMMA06",53278.000,"cc",28308.535,6.00,2830.854,1,6,0.100,29023.000,0.200,19503.000,0.300,3281.000,0.500,858.000,1.000,613.000,5.000,0
"07/01/06","14:05:15","AMMA06",52958.000,"cc",28286.160,6.00,2828.616,1,6,0.100,28860.000,0.200,19438.000,0.300,3207.000,0.500,868.000,1.000,584.000,5.000,1.000
"07/01/06","14:05:21","AMMA06",52906.000,"cc",28315.525,6.00,2831.553,1,6,0.100,28970.000,0.200,19091.000,0.300,3327.000,0.500,886.000,1.000,631.000,5.000,1.000
"07/01/06","14:05:27","AMMA06",53077.000,"cc",28321.719,6.00,2832.172,1,6,0.100,29211.000,0.200,19088.000,0.300,3269.000,0.500,944.000,1.000,565.000,5.000,0
"07/01/06","14:05:33","AMMA06",52952.000,"cc",28333.053,6.00,2833.305,1,6,0.100,28929.000,0.200,19354.000,0.300,3250.000,0.500,828.000,1.000,590.000,5.000,1.000
"07/01/06","14:05:39","AMMA06",52948.000,"cc",28321.607,6.00,2832.161,1,6,0.100,29082.000,0.200,19104.000,0.300,3248.000,0.500,900.000,1.000,614.000,5.000,0
"07/01/06","14:05:45","AMMA06",53311.000,"cc",28345.371,6.00,2834.537,1,6,0.100,29018.000,0.200,19563.000,0.300,3331.000,0.500,832.000,1.000,566.000,5.000,1.000
"07/01/06","14:05:51","AMMA06",52645.000,"cc",28340.990,6.00,2834.099,1,6,0.100,28940.000,0.200,18952.000,0.300,3250.000,0.500,886.000,1.000,616.000,5.000,1.000
"07/01/06","14:05:57","AMMA06",53010.000,"cc",28312.584,6.00,2831.259,1,6,0.100,29128.000,0.200,19174.000,0.300,3297.000,0.500,811.000,1.000,600.000,5.000,0
"07/01/06","14:06:03","AMMA06",52984.000,"cc",28317.611,6.00,2831.761,1,6,0.100,29112.000,0.200,19184.000,0.300,3217.000,0.500,855.000,1.000,614.000,5.000,2.000
"07/01/06","14:06:09","AMMA06",53007.000,"cc",28297.484,6.00,2829.749,1,6,0.100,29088.000,0.200,19144.000,0.300,3252.000,0.500,917.000,1.000,606.000,5.000,0
"07/01/06","14:06:15","AMMA06",53470.000,"cc",28301.318,6.00,2830.132,1,6,0.100,29225.000,0.200,19417.000,0.300,3343.000,0.500,899.000,1.000,586.000,5.000,0
"07/01/06","14:06:21","AMMA06",53384.000,"cc",28339.625,6.00,2833.963,1,6,0.100,29233.000,0.200,19357.000,0.300,3266.000,0.500,922.000,1.000,606.000,5.000,0
"07/01/06","14:06:27","AMMA06",52987.000,"cc",28290.967,6.00,2829.097,1,6,0.100,29045.000,0.200,19137.000,0.300,3332.000,0.500,883.000,1.000,588.000,5.000,2.000
"07/01/06","14:06:33","AMMA06",53381.000,"cc",28314.912,6.00,2831.492,1,6,0.100,29088.000,0.200,19367.000,0.300,3436.000,0.500,860.000,1.000,630.000,5.000,0
"07/01/06","14:06:39","AMMA06",53253.000,"cc",28291.647,6.00,2829.165,1,6,0.100,29194.000,0.200,19250.000,0.300,3399.000,0.500,836.000,1.000,573.000,5.000,1.000
"07/01/06","14:06:45","AMMA06",53473.000,"cc",28299.926,6.00,2829.993,1,6,0.100,29054.000,0.200,19631.000,0.300,3319.000,0.500,902.000,1.000,567.000,5.000,0
"07/01/06","14:06:51","AMMA06",53134.000,"cc",28306.107,6.00,2830.611,1,6,0.100,28937.000,0.200,19289.000,0.300,3393.000,0.500,883.000,1.000,632.000,5.000,0
"07/01/06","14:06:57","AMMA06",53763.000,"cc",28321.611,6.00,2832.161,1,6,0.100,29207.000,0.200,19662.000,0.300,3375.000,0.500,888.000,1.000,631.000,5.000,0
"07/01/06","14:07:03","AMMA06",53407.000,"cc",28308.395,6.00,2830.840,1,6,0.100,29068.000,0.200,19460.000,0.300,3389.000,0.500,865.000,1.000,625.000,5.000,0
"07/01/06","14:07:09","AMMA06",53074.000,"cc",28340.416,6.00,2834.042,1,6,0.100,28895.000,0.200,19398.000,0.300,3275.000,0.500,868.000,1.000,638.000,5.000,0
"07/01/06","14:07:15","AMMA06",53592.000,"cc",28309.805,6.00,2830.981,1,6,0.100,29138.000,0.200,19697.000,0.300,3316.000,0.500,847.000,1.000,593.000,5.000,1.000
"07/01/06","14:07:21","AMMA06",53293.000,"cc",28331.000,6.00,2833.100,1,6,0.100,28737.000,0.200,19739.000,0.300,3318.000,0.500,867.000,1.000,632.000,5.000,0
"07/01/06","14:07:27","AMMA06",53007.000,"cc",28310.303,6.00,2831.031,1,6,0.100,28727.000,0.200,19510.000,0.300,3344.000,0.500,825.000,1.000,601.000,5.000,0
"07/01/06","14:07:33","AMMA06",53259.000,"cc",28353.281,6.00,2835.328,1,6,0.100,28780.000,0.200,19551.000,0.300,3408.000,0.500,889.000,1.000,631.000,5.000,0
"07/01/06","14:07:39","AMMA06",53000.000,"cc",28300.680,6.00,2830.068,1,6,0.100,28736.000,0.200,19461.000,0.300,3325.000,0.500,864.000,1.000,613.000,5.000,1.000
"07/01/06","14:07:45","AMMA06",53441.000,"cc",28311.586,6.00,2831.159,1,6,0.100,28898.000,0.200,19636.000,0.300,3420.000,0.500,866.000,1.000,621.000,5.000,0
"07/01/06","14:07:51","AMMA06",53184.000,"cc",28346.264,6.00,2834.627,1,6,0.100,28790.000,0.200,19501.000,0.300,3439.000,0.500,882.000,1.000,571.000,5.000,1.000
"07/01/06","14:07:57","AMMA06",53153.000,"cc",28321.522,6.00,2832.152,1,6,0.100,28377.000,0.200,19798.000,0.300,3517.000,0.500,856.000,1.000,605.000,5.000,0
"07/01/06","14:08:03","AMMA06",53183.000,"cc",28328.102,6.00,2832.810,1,6,0.100,28248.000,0.200,19986.000,0.300,3453.000,0.500,881.000,1.000,615.000,5.000,0
"07/01/06","14:08:09","AMMA06",53507.000,"cc",28275.445,6.00,2827.545,1,6,0.100,28456.000,0.200,20114.000,0.300,3451.000,0.500,900.000,1.000,586.000,5.000,0
"07/01/06","14:08:15","AMMA06",53588.000,"cc",28312.389,6.00,2831.239,1,6,0.100,28544.000,0.200,19979.000,0.300,3561.000,0.500,866.000,1.000,638.000,5.000,0
"07/01/06","14:08:21","AMMA06",53489.000,"cc",28287.801,6.00,2828.780,1,6,0.100,28348.000,0.200,20074.000,0.300,3623.000,0.500,869.000,1.000,575.000,5.000,0
"07/01/06","14:08:27","AMMA06",53543.000,"cc",28343.076,6.00,2834.308,1,6,0.100,28161.000,0.200,20308.000,0.300,3554.000,0.500,892.000,1.000,627.000,5.000,1.000
"07/01/06","14:08:33","AMMA06",54094.000,"cc",28341.324,6.00,2834.133,1,6,0.100,28617.000,0.200,20388.000,0.300,3544.000,0.500,899.000,1.000,645.000,5.000,1.000
"07/01/06","14:08:39","AMMA06",53796.000,"cc",28306.531,6.00,2830.653,1,6,0.100,28522.000,0.200,20159.000,0.300,3597.000,0.500,900.000,1.000,618.000,5.000,0
"07/01/06","14:08:45","AMMA06",53778.000,"cc",28296.697,6.00,2829.670,1,6,0.100,28426.000,0.200,20263.000,0.300,3592.000,0.500,873.000,1.000,624.000,5.000,0
"07/01/06","14:08:51","AMMA06",54729.000,"cc",28320.147,6.00,2832.015,1,6,0.100,29504.000,0.200,20317.000,0.300,3507.000,0.500,848.000,1.000,553.000,5.000,0
"07/01/06","14:08:57","AMMA06",54402.000,"cc",28300.928,6.00,2830.093,1,6,0.100,29072.000,0.200,20311.000,0.300,3561.000,0.500,826.000,1.000,629.000,5.000,3.000
"07/01/06","14:09:03","AMMA06",55335.000,"cc",28329.385,6.00,2832.939,1,6,0.100,29809.000,0.200,20437.000,0.300,3599.000,0.500,860.000,1.000,628.000,5.000,2.000
"07/01/06","14:09:09","AMMA06",58684.000,"cc",28356.580,6.00,2835.658,1,6,0.100,32456.000,0.200,21096.000,0.300,3651.000,0.500,827.000,1.000,654.000,5.000,0
"07/01/06","14:09:15","AMMA06",60875.000,"cc",28328.795,6.00,2832.880,1,6,0.100,34380.000,0.200,21260.000,0.300,3753.000,0.500,877.000,1.000,605.000,5.000,0
"07/01/06","14:09:21","AMMA06",68851.000,"cc",28312.074,6.00,2831.208,1,6,0.100,41443.000,0.200,22294.000,0.300,3715.000,0.500,772.000,1.000,627.000,5.000,0
"07/01/06","14:09:27","AMMA06",67403.000,"cc",28316.088,6.00,2831.609,1,6,0.100,39887.000,0.200,22198.000,0.300,3767.000,0.500,874.000,1.000,676.000,5.000,1.000
"07/01/06","14:09:33","AMMA06",73349.000,"cc",28312.959,6.00,2831.296,1,6,0.100,45028.000,0.200,23115.000,0.300,3711.000,0.500,868.000,1.000,627.000,5.000,0
"07/01/06","14:09:39","AMMA06",70888.000,"cc",28322.068,6.00,2832.207,1,6,0.100,43042.000,0.200,22768.000,0.300,3616.000,0.500,863.000,1.000,599.000,5.000,0
"07/01/06","14:09:45","AMMA06",87440.000,"cc",28239.393,6.00,2823.940,1,6,0.100,56966.000,0.200,25104.000,0.300,3895.000,0.500,867.000,1.000,608.000,5.000,0
"07/01/06","14:09:51","AMMA06",97062.000,"cc",28297.510,6.00,2829.751,1,6,0.100,64980.000,0.200,26660.000,0.300,3914.000,0.500,906.000,1.000,601.000,5.000,1.000
"07/01/06","14:09:57","AMMA06",99001.000,"cc",28356.844,6.00,2835.685,1,6,0.100,66798.000,0.200,26703.000,0.300,4064.000,0.500,862.000,1.000,574.000,5.000,0
"07/01/06","14:10:03","AMMA06",115437.000,"cc",28326.660,6.00,2832.666,1,6,0.100,80870.000,0.200,28935.000,0.300,4145.000,0.500,861.000,1.000,626.000,5.000,0
"07/01/06","14:10:09","AMMA06",75305.000,"cc",28360.115,6.00,2836.012,1,6,0.100,46873.000,0.200,23102.000,0.300,3765.000,0.500,938.000,1.000,627.000,5.000,0
"07/01/06","14:10:15","AMMA06",82916.000,"cc",28297.039,6.00,2829.704,1,6,0.100,53335.000,0.200,24296.000,0.300,3808.000,0.500,881.000,1.000,596.000,5.000,0
"07/01/06","14:10:21","AMMA06",71056.000,"cc",28310.957,6.00,2831.096,1,6,0.100,43675.000,0.200,22270.000,0.300,3645.000,0.500,842.000,1.000,624.000,5.000,0
"07/01/06","14:10:27","AMMA06",83013.000,"cc",28328.256,6.00,2832.826,1,6,0.100,53799.000,0.200,23941.000,0.300,3719.000,0.500,918.000,1.000,635.000,5.000,1.000
"07/01/06","14:10:33","AMMA06",78653.000,"cc",28347.445,6.00,2834.745,1,6,0.100,50171.000,0.200,23289.000,0.300,3634.000,0.500,898.000,1.000,661.000,5.000,0
"07/01/06","14:10:39","AMMA06",89984.000,"cc",28353.920,6.00,2835.392,1,6,0.100,60322.000,0.200,24353.000,0.300,3827.000,0.500,894.000,1.000,586.000,5.000,2.000
"07/01/06","14:10:45","AMMA06",106540.000,"cc",28278.414,6.00,2827.842,1,6,0.100,73709.000,0.200,27611.000,0.300,3771.000,0.500,872.000,1.000,576.000,5.000,1.000
"07/01/06","14:10:51","AMMA06",134106.000,"cc",28268.766,6.00,2826.877,1,6,0.100,97059.000,0.200,31535.000,0.300,4053.000,0.500,881.000,1.000,578.000,5.000,0
"07/01/06","14:10:57","AMMA06",129547.000,"cc",28338.697,6.00,2833.870,1,6,0.100,93116.000,0.200,30792.000,0.300,4143.000,0.500,862.000,1.000,633.000,5.000,1.000
"07/01/06","14:11:03","AMMA06",109547.000,"cc",28306.129,6.00,2830.613,1,6,0.100,76675.000,0.200,27591.000,0.300,3775.000,0.500,898.000,1.000,608.000,5.000,0
"07/01/06","14:11:09","AMMA06",99990.000,"cc",28316.152,6.00,2831.616,1,6,0.100,68495.000,0.200,26248.000,0.300,3794.000,0.500,876.000,1.000,577.000,5.000,0
"07/01/06","14:11:15","AMMA06",183361.000,"cc",28296.918,6.00,2829.692,1,6,0.100,136960.000,0.200,40227.000,0.300,4610.000,0.500,929.000,1.000,634.000,5.000,1.000
"07/01/06","14:11:21","AMMA06",227758.000,"cc",28326.461,6.00,2832.646,1,6,0.100,173051.000,0.200,48093.000,0.300,5116.000,0.500,890.000,1.000,607.000,5.000,1.000
"07/01/06","14:11:27","AMMA06",165175.000,"cc",28365.272,6.00,2836.527,1,6,0.100,122293.000,0.200,36853.000,0.300,4455.000,0.500,942.000,1.000,632.000,5.000,0
"07/01/06","14:11:33","AMMA06",214400.000,"cc",28269.793,6.00,2826.980,1,6,0.100,162458.000,0.200,45512.000,0.300,4940.000,0.500,889.000,1.000,600.000,5.000,1.000
"07/01/06","14:11:39","AMMA06",151403.000,"cc",28350.965,6.00,2835.097,1,6,0.100,111094.000,0.200,34569.000,0.300,4225.000,0.500,854.000,1.000,661.000,5.000,0
"07/01/06","14:11:45","AMMA06",109324.000,"cc",28322.320,6.00,2832.232,1,6,0.100,76320.000,0.200,27584.000,0.300,3898.000,0.500,890.000,1.000,630.000,5.000,2.000
"07/01/06","14:11:51","AMMA06",84399.000,"cc",28290.156,6.00,2829.016,1,6,0.100,55198.000,0.200,23993.000,0.300,3691.000,0.500,883.000,1.000,633.000,5.000,1.000
"07/01/06","14:11:57","AMMA06",102018.000,"cc",28336.961,6.00,2833.696,1,6,0.100,69741.000,0.200,26908.000,0.300,3861.000,0.500,920.000,1.000,588.000,5.000,0
"07/01/06","14:12:03","AMMA06",132618.000,"cc",28314.803,6.00,2831.481,1,6,0.100,95156.000,0.200,31761.000,0.300,4224.000,0.500,886.000,1.000,591.000,5.000,0
"07/01/06","14:12:09","AMMA06",166522.000,"cc",28340.152,6.00,2834.015,1,6,0.100,122785.000,0.200,37713.000,0.300,4527.000,0.500,857.000,1.000,639.000,5.000,1.000
"07/01/06","14:12:15","AMMA06",147543.000,"cc",28312.742,6.00,2831.274,1,6,0.100,107266.000,0.200,34317.000,0.300,4420.000,0.500,901.000,1.000,639.000,5.000,0
"07/01/06","14:12:21","AMMA06",122495.000,"cc",28305.883,6.00,2830.588,1,6,0.100,86629.000,0.200,30230.000,0.300,4056.000,0.500,923.000,1.000,657.000,5.000,0
"07/01/06","14:12:27","AMMA06",119322.000,"cc",28317.047,6.00,2831.705,1,6,0.100,84006.000,0.200,29587.000,0.300,4103.000,0.500,976.000,1.000,648.000,5.000,2.000
"07/01/06","14:12:33","AMMA06",125870.000,"cc",28307.963,6.00,2830.796,1,6,0.100,89410.000,0.200,30866.000,0.300,4075.000,0.500,906.000,1.000,612.000,5.000,1.000
"07/01/06","14:12:39","AMMA06",103382.000,"cc",28272.816,6.00,2827.282,1,6,0.100,71183.000,0.200,26937.000,0.300,3762.000,0.500,871.000,1.000,628.000,5.000,1.000
"07/01/06","14:12:45","AMMA06",164253.000,"cc",28344.051,6.00,2834.405,1,6,0.100,121157.000,0.200,36980.000,0.300,4605.000,0.500,892.000,1.000,619.000,5.000,0
"07/01/06","14:12:51","AMMA06",156931.000,"cc",28352.285,6.00,2835.229,1,6,0.100,115013.000,0.200,35885.000,0.300,4538.000,0.500,897.000,1.000,597.000,5.000,1.000
"07/01/06","14:12:57","AMMA06",240589.000,"cc",28344.266,6.00,2834.427,1,6,0.100,182329.000,0.200,51100.000,0.300,5609.000,0.500,892.000,1.000,658.000,5.000,1.000
"07/01/06","14:13:03","AMMA06",208357.000,"cc",28323.461,6.00,2832.346,1,6,0.100,156105.000,0.200,45384.000,0.300,5389.000,0.500,883.000,1.000,595.000,5.000,1.000
"07/01/06","14:13:09","AMMA06",245529.000,"cc",28258.701,6.00,2825.870,1,6,0.100,186174.000,0.200,52052.000,0.300,5801.000,0.500,867.000,1.000,634.000,5.000,1.000
"07/01/06","14:13:15","AMMA06",206384.000,"cc",28334.041,6.00,2833.404,1,6,0.100,154925.000,0.200,44755.000,0.300,5177.000,0.500,916.000,1.000,611.000,5.000,0
"07/01/06","14:13:21","AMMA06",154482.000,"cc",28339.215,6.00,2833.922,1,6,0.100,113144.000,0.200,35183.000,0.300,4642.000,0.500,885.000,1.000,628.000,5.000,0
"07/01/06","14:13:27","AMMA06",119661.000,"cc",28244.965,6.00,2824.497,1,6,0.100,84741.000,0.200,29477.000,0.300,3987.000,0.500,841.000,1.000,613.000,5.000,2.000
"07/01/06","14:13:33","AMMA06",94811.000,"cc",28328.102,6.00,2832.810,1,6,0.100,63746.000,0.200,25785.000,0.300,3795.000,0.500,842.000,1.000,642.000,5.000,1.000
"07/01/06","14:13:39","AMMA06",151511.000,"cc",28339.820,6.00,2833.982,1,6,0.100,110649.000,0.200,34805.000,0.300,4544.000,0.500,895.000,1.000,618.000,5.000,0
"07/01/06","14:13:45","AMMA06",149682.000,"cc",28355.057,6.00,2835.506,1,6,0.100,109528.000,0.200,34264.000,0.300,4421.000,0.500,917.000,1.000,552.000,5.000,0
"07/01/06","14:13:51","AMMA06",101835.000,"cc",28316.918,6.00,2831.692,1,6,0.100,69661.000,0.200,26611.000,0.300,4062.000,0.500,892.000,1.000,609.000,5.000,0
"07/01/06","14:13:57","AMMA06",111704.000,"cc",28266.582,6.00,2826.658,1,6,0.100,77279.000,0.200,28483.000,0.300,4343.000,0.500,960.000,1.000,639.000,5.000,0
"07/01/06","14:14:03","AMMA06",81543.000,"cc",28334.242,6.00,2833.424,1,6,0.100,52754.000,0.200,23406.000,0.300,3857.000,0.500,921.000,1.000,605.000,5.000,0